Regional Weather Roundup
Issued by NWS

Home | Current Version | Previous Version | Graphics & Text | Print | Product List | Glossary On
Versions: 1 2 3 4 5 6 7 8 9 10 11 12 13 14 15 16 17 18 19 20 21 22 23 24 25 26 27
000
ASUS45 KSLC 280310
RWRUT

UTAH REGIONAL WEATHER ROUNDUP
NATIONAL WEATHER SERVICE SALT LAKE CITY UT
900 PM MDT TUE JUN 27 2017

UTZ001>011-023>025-280400-

NORTHERN UTAH

CITY           SKY/WX    TMP DP  RH WIND       PRES   REMARKS
BRIGHAM CITY   CLEAR     80  31  16 NW14      29.86S
HILL AFB       CLEAR     80  35  19 CALM      29.89F
LOGAN          CLEAR     72  44  36 N5        29.89S
OGDEN          CLEAR     81  36  19 CALM      29.86F
SALT LAKE CITY PTCLDY    84  33  16 N5        29.84F
TOOELE VALLEY  CLEAR     79  37  22 N3        29.87S
WENDOVER         N/A     85  26  11 NW14      29.85S
HEBER CITY     CLEAR     72  32  23 E5        29.94S
WEST JORDAN    CLEAR     78  46  31 CALM      29.89S

$$

UTZ011>015-024>027-280400-

CENTRAL/NORTHEAST UTAH

CITY           SKY/WX    TMP DP  RH WIND       PRES   REMARKS
PROVO AIRPORT  CLEAR     78  39  24 NW10      29.87S
MOAB/CANYONLAN PTCLDY    90   8   4 SW10      29.76S
DELTA          CLEAR     84  25  11 N8        29.84F
PRICE          CLEAR     79  29  16 NW10      29.94S
VERNAL         CLEAR     82  29  14 W16       29.87S

$$

UTZ013>016-019>022-027-280400-

SOUTHERN UTAH

CITY           SKY/WX    TMP DP  RH WIND       PRES   REMARKS
BRYCE CANYON   MOCLDY    72  20  14 SW15      30.12S
CEDAR CITY     CLEAR     81  20  10 S13       29.95S
MILFORD        CLEAR     87  21   9 SW22      29.86R
ST GEORGE      CLEAR     97  23   7 W9        29.75S HX  90
HANKSVILLE     CLEAR     91  27   9 NW9       29.79R
BLANDING       CLEAR     79  17  10 CALM      30.01S

$$

REGIONAL REPORTS     COLORADO/ARIZONA

CITY           SKY/WX    TMP DP  RH WIND       PRES   REMARKS
CRAIG, CO      CLOUDY    76  22  13 NW9       29.97R
GRAND JUNCTION CLEAR     88  19   8 S5        29.80S
RIFLE, CO      CLEAR     82  25  12 N3        29.88R
MONTROSE, CO   CLEAR     80  24  12 SW3       29.91R
CORTEZ, CO     CLEAR     70  30  22 SE3       29.95F
COLORADO CITY    N/A     84  23  10 W7        29.96S
PAGE, AZ       CLEAR     93  16   6 W9G23     29.83R
GRAND CANYON   CLEAR     76   9   7 SW9       30.10R
KINGMAN, AZ    CLEAR     92  13   5 SW13      29.84S
FLAGSTAFF, AZ  CLEAR     73   2   6 SW14      30.15S

$$

REGIONAL REPORTS    NEVADA/IDAHO/WYOMING

CITY           SKY/WX    TMP DP  RH WIND       PRES   REMARKS
LAS VEGAS, NV  CLEAR    102   5   3 SW9       29.68F HX  94
ELY, NY        CLEAR     79  25  13 N13       29.99R
ELKO, NV       CLEAR     79  20  11 W5        29.93F
POCATELLO, ID  PTCLDY    73  43  33 SW13      29.89S
BURLEY, ID     CLEAR     74  46  36 W5        29.86S
FORT BRIDGER,    N/A     69  28  21 W10G16    30.08F
EVANSTON, WY   CLEAR     65  35  33 W10       30.08R
ROCK SPRINGS,  CLEAR     69  33  26 NW14G22   30.02R
KEMMERER, WY     N/A     63  32  31 W13       30.08S

$$




USA.gov is the U.S. government's official web portal to all federal, state and local government web resources and services.